Weather Roundup
Issued by NWS Chicago, IL

Home | Current Version | Previous Version | Graphics & Text | Print | Product List | Glossary On
Versions: 1 2 3 4 5 6 7 8 9 10 11 12 13 14 15 16 17 18 19 20 21 22 23 24 25 26 27 28 29 30 31 32 33 34 35 36 37 38 39 40 41 42 43 44 45 46 47 48 49 50
000
NZUS59 KLOT 221003
HRRLOT

CHICAGO AREA WEATHER ROUNDUP
NATIONAL WEATHER SERVICE CHICAGO/ROMEOVILLE IL
500 AM CDT SUN APR 22 2018

NOTE: "FAIR" INDICATES FEW OR NO CLOUDS BELOW 12,000 FEET WITH NO
SIGNIFICANT WEATHER AND/OR OBSTRUCTIONS TO VISIBILITY.

* THESE STATIONS ARE NOT UNDER NWS QUALITY CONTROL. THEY ALSO MAY NOT
  REPORT WEATHER SUCH AS PRECIPITATION OR FOG.

ILZ005-006-012>014-019>023-221100-
NORTHEAST ILLINOIS

CITY           SKY/WX    TMP DP  RH WIND       PRES   REMARKS
OHARE          CLOUDY    44  20  38 E7        30.33F
MIDWAY         CLOUDY    45  23  42 E8        30.33F
AURORA           N/A     44  22  41 NE9       30.31F
LANSING*         N/A     44  33  65 E8        30.32F
JOLIET*        MOCLDY    47  26  43 NE5       30.31S
WAUKEGAN         N/A     38  27  64 NE3       30.35R
DUPAGE AIRPORT MOCLDY    43  19  38 NE8       30.31F
WHEELING         N/A     43  21  41 NE3       30.36F
KANKAKEE*        N/A     44  30  59 E9        30.32S
MORRIS*          N/A     43  28  55 E6        30.31R
LEWIS AIRPORT*   N/A     44  24  46 E7        30.32R
NORTHERLY ISL    N/A     41  27  57 N3          N/A
$$

WIZ051-052-058>065-066-070>072-221100-
SOUTHEAST WISCONSIN

CITY           SKY/WX    TMP DP  RH WIND       PRES   REMARKS
MILWAUKEE      MOCLDY    36  22  56 CALM      30.36S
KENOSHA*         N/A     40  26  57 CALM      30.35S
RACINE*          N/A     35  25  66 CALM      30.37S
BURLINGTON       N/A     35  29  79 CALM      30.35S
WAUKESHA         N/A     32  23  69 CALM      30.37R
WEST BEND        N/A     28  27  93 CALM      30.36F
$$

INZ001>003-010>013-019-020-221100-
NORTHWEST INDIANA

CITY           SKY/WX    TMP DP  RH WIND       PRES   REMARKS
GARY*          CLOUDY    43  37  81 NE5       30.34F
MICHIGAN CITY* NOT AVBL
RENSSELAER*    NOT AVBL
VALPARAISO       N/A     46  31  55 NE8       30.33F
$$

LMZ740>746-221100-
SOUTHERN LAKE MICHIGAN

STATION/POSITION TIME  SKY/WX   TEMP WIND        PRES    VSBY
                                AIR  DIR/SP/G
                 (UTC)          (F)  (DEG/KT/KT) (MB)    (MI)
HARRISON CRIB    0940            42   60/  4/  6   N/A
BURNHAM HARBOR   1000            41   20/  3/  5   N/A
CALUMET HARBOR   0930            40  360/  5/  8 1026.9F
BURNS HARBOR     0940            49  100/ 10/ 12 1027.8F
MICHIGAN CITY    0940            45  110/  6/  7   N/A
$$

ABBREVIATIONS USED IN REMARKS
   TC - TEMPERATURE IN CELSIUS
  WCI - WIND CHILL INDEX
   HX - HEAT INDEX
  VSB - VISIBILITY
$$




USA.gov is the U.S. government's official web portal to all federal, state and local government web resources and services.